Simultaneous Nadir Overpasses (SNOs) Predictions

Prediction of SNOs between AQUA and NOAA-19 Satellite Orbit:

Table of predicted SNOs for the next 14.0 days since TLE Epoch: 10/27/2017
Index Date (AQUA) Time (AQUA) Lat,Lon (AQUA) SZA (AQUA ) Date (NOAA-19) Time (NOAA-19) Lat,Lon (NOAA-19) SZA (NOAA-19 ) Distance(km) Time Diff (sec)
1 10/29/2017 20:48:38 -80.92, 7.70 83.71 10/29/2017 20:48:37 -80.92, 7.56 83.70 2.30 1
2 11/01/2017 02:22:22 80.92, 104.25 97.02 11/01/2017 02:22:22 80.92, 104.40 97.00 2.52 0
3 11/03/2017 07:56:06 -80.92,-159.10 82.30 11/03/2017 07:56:04 -80.92,-159.13 82.29 0.69 2
4 11/05/2017 13:29:50 80.93, -62.71 98.41 11/05/2017 13:29:51 80.92, -62.75 98.41 1.56 1
5 11/07/2017 19:03:34 -80.93, 33.91 80.94 11/07/2017 19:03:31 -80.92, 34.06 80.96 2.80 3




NCC Satellite Simultaneous Nadir Overpasses (SNOs) Prediction Service
